Location: Unspecified
(43.4680°N, 87.1740°E)
Time: 20:24:43
(UTC+00:00)

Meteor 1-27 Rocket - Pass Details

Date: 17 April 2021
Orbit: 830 x 909 km, 81.3° (Epoch: 12 May)

Event Time Altitude Azimuth Distance (km) Brightness Sun altitude
Exits shadow 19:25:17 51° 13° (NNE) 1,068 4.4 -33.2°
Drops below altitude 10° 19:29:29 10° 11° (N) 2,513 7.0 -32.9°
Sets 19:31:57 0° 11° (N) 3,467 7.9 -32.7°
